Showing default

SNUGLITE, 43784

Orbit data source: Space-Track

SNUGLITE, 43784 is a payload satellite owned by SNU (KR) in SSO that was launched on Mon, 03 Dec 2018 UTC via an FALCON 9 launch vehicle from the Air Force Western Test Range (AFWTR). Payload-class satellites include a variety of spacecraft equipped with specific instruments for various scientific and technological missions. These include communications satellites like Starlink; space stations such as the ISS; scientific satellites like the Hubble; Earth observation satellites from companies like Planet Labs, Umbra, and HawkEye 360; GPS; miniature CubeSats for education and research; and military/defense satellites.

Loading next visibility...
Identifier
43784, 2018-099AC
Orbit
SSO
Country
Flag of UnknownUnknown / SKOR
Related business
Manufacturer
SNU
Mission
Operational Amateur Technology
Bus & Motor
CUBESAT 2U, Unknown motor
Mass
2 kg wet, 2 kg dry
Launch date (UTC)
2018-12-03 (7 years ago)
Launch vehicle
FALCON 9
Launch site
Air Force Western Test Range (AFWTR)
Object type
Payload
Rocket body
Debris
Shape & HBR
Box + 1 Rod, 0.2 m
Radar Cross Section
0.025 m², Small (<0.1 m²)

Expand to show TLE details & history
Last TLE update: 16 hours ago

TLE from 16 hours ago
0 SNUGLITE
1 43784U 18099AC  25242.67042034  .00014412  00000-0  69279-3 0  9992
2 43784  97.4338 295.6972 0002774 200.3297 159.7827 15.18915115369098
Epoch: 2025-08-30T16:05Z
TLE epoch observation values (Epoch: 2025-08-30T16:05:24.317Z)
Latitude
-0.00006°
Longitude
75.2445°
Altitude
513.999 km
Speed
7.606 km/s
True Right ascension
19h 42m 47s
True Declination
0° 00' 00"
Sunlit
Object was in full shadow at epoch
Visualization orbit readout
Latitude
Unknown
Longitude
Unknown
Altitude
Unknown
Speed
Unknown
Apparent Right ascension
Unknown
Apparent Declination
Unknown
Sunlit
N/A
Visualization observer readout
Local Sidereal Time
23:57:45
Azimuth
Unknown
Elevation
Unknown
Doppler factor
Unknown
Orbital elements
Apogee altitude
507.996 km
Perigee altitude
504.177 km
Semi-major axis
6,884.224 km
Eccentricity
0.00028
Inclination
97.4338°
RAAN
295.6972°
Arg. of periapsis
200.3297°
True anomaly
159.79368°
Mean anomaly
159.7827°
Eccentric anomaly
159.78819°
Mean motion
3.7998 °/min
Orbital period
94.74 mins
BSTAR
0.00069279
Loading maneuver chart data...
Computing Atmospheric mass density...
Loading historical data...
Loading historical data...
Loading historical data...
Loading historical data...
Loading historical data...
Loading historical data...
Loading historical data...

Documentation

Showing up to 5 results
|